, SD

(GMT )
Rapid City

Weather History for KRAP - April, 2013

Change the Weather History Date:

Saturday, April 27, 2013

  Actual Average Record
Temperature  
Mean Temperature 58 °F 49 °F  
Max Temperature 79 °F 62 °F 87 °F (1952)
Min Temperature 37 °F 36 °F 17 °F (1994)
Degree Days  
Heating Degree Days 7 16  
Month to date heating degree days 807 555  
Since 1 July heating degree days 6764 6683  
Cooling Degree Days 0 0  
Month to date cooling degree days 0 0  
Year to date cooling degree days 0 0  
Growing Degree Days 8 (Base 50)    
Moisture  
Dew Point 31 °F    
Average Humidity 42    
Maximum Humidity 70    
Minimum Humidity 13    
Precipitation  
Precipitation 0.00 in 0.09 in 1.22 in (2014)
Month to date precipitation 3.01 1.54  
Year to date precipitation 4.44 3.21  
Snow  
Snow 0.00 in 0.20 in 4.60 in (1969)
Month to date snowfall 43.4 7.4  
Since 1 July snowfall 76.7 39.5  
Snow Depth 0.00 in    
Sea Level Pressure  
Sea Level Pressure 29.92 in    
Wind  
Wind Speed 7 mph (NW)    
Max Wind Speed 20 mph    
Max Gust Speed 28 mph    
Visibility 10 miles    
Events      
T = Trace of Precipitation, MM = Missing Value Source: NWS Daily Summary

Daily Weather History Graph

Daily Weather History Graph

Search for Another Location

Airport or City:

Trip Planner

Search our weather history database for the weather conditions in past years. The results will help you decide how hot, cold, wet, or windy it might be!

Date:

Astronomy

Apr. 27, 2013 Rise Set
Actual Time 5:49 AM MDT 7:51 PM MDT
Civil Twilight 5:17 AM MDT 8:22 PM MDT
Nautical Twilight 4:39 AM MDT 9:01 PM MDT
Astronomical Twilight 3:57 AM MDT 9:43 PM MDT
Moon 10:26 PM MDT (4/27) 7:06 AM MDT (4/27)
Length of Visible Light 15h 04m
Length of Day
14h 02m
Waning Gibbous, 95% of the Moon is Illuminated
Apr 27
Waning Gibbous
May 2
Last Quarter
May 9
New
May 17
First Quarter
May 24
Full

Hourly Weather History & Observations

Time (MDT) Temp. Windchill Dew Point Humidity Pressure Visibility Wind Dir Wind Speed Gust Speed Precip Events Conditions
12:52 AM 45.0 °F 43.5 °F 30.0 °F 56% 30.08 in 10.0 mi SSE 3.5 mph - N/A   Clear
1:52 AM 44.1 °F 41.5 °F 30.9 °F 60% 30.06 in 10.0 mi SE 4.6 mph - N/A   Clear
2:52 AM 43.0 °F 39.5 °F 30.0 °F 60% 30.04 in 10.0 mi SE 5.8 mph - N/A   Clear
3:52 AM 42.1 °F 37.1 °F 30.0 °F 62% 30.02 in 10.0 mi SE 8.1 mph - N/A   Clear
4:52 AM 39.9 °F 35.8 °F 30.0 °F 68% 30.01 in 10.0 mi SE 5.8 mph - N/A   Clear
5:52 AM 39.9 °F - 28.9 °F 65% 30.00 in 10.0 mi Calm Calm - N/A   Clear
6:52 AM 43.0 °F - 33.1 °F 68% 30.01 in 10.0 mi Calm Calm - N/A   Clear
7:52 AM 55.0 °F - 34.0 °F 45% 30.00 in 10.0 mi WNW 6.9 mph - N/A   Clear
8:52 AM 64.0 °F - 35.1 °F 34% 29.98 in 10.0 mi West 3.5 mph - N/A   Clear
9:52 AM 73.0 °F - 28.0 °F 19% 29.96 in 10.0 mi WNW 6.9 mph - N/A   Clear
10:52 AM 73.0 °F - 32.0 °F 22% 29.96 in 10.0 mi North 13.8 mph 20.7 mph N/A   Clear
11:52 AM 75.9 °F - 30.9 °F 19% 29.95 in 10.0 mi NNW 17.3 mph 27.6 mph N/A   Clear
12:39 PM 77.0 °F - 30.2 °F 18% 29.96 in 10.0 mi NW 15.0 mph 24.2 mph N/A   Clear
12:52 PM 77.0 °F - 30.9 °F 19% 29.92 in 10.0 mi North 12.7 mph - N/A   Clear
12:59 PM 77.0 °F - 30.2 °F 18% 29.95 in 10.0 mi NW 10.4 mph 18.4 mph N/A   Clear
1:52 PM 75.0 °F - 28.9 °F 18% 29.91 in 10.0 mi North 11.5 mph - N/A   Clear
2:52 PM 78.1 °F - 27.0 °F 15% 29.88 in 10.0 mi WNW 16.1 mph 21.9 mph N/A   Clear
3:52 PM 78.1 °F - 24.1 °F 14% 29.87 in 10.0 mi West 12.7 mph 24.2 mph N/A   Clear
4:52 PM 78.1 °F - 25.0 °F 14% 29.86 in 10.0 mi NW 10.4 mph - N/A   Clear
5:52 PM 77.0 °F - 27.0 °F 16% 29.85 in 10.0 mi West 8.1 mph - N/A   Clear
6:52 PM 69.1 °F - 32.0 °F 25% 29.84 in 10.0 mi NE 5.8 mph - N/A   Clear
7:52 PM 63.0 °F - 30.9 °F 30% 29.82 in 10.0 mi ENE 3.5 mph - N/A   Clear
8:52 PM 57.0 °F - 32.0 °F 39% 29.80 in 10.0 mi Calm Calm - N/A   Clear
9:52 PM 53.1 °F - 35.1 °F 50% 29.80 in 10.0 mi Calm Calm - N/A   Clear
10:52 PM 52.0 °F - 35.1 °F 53% 29.79 in 10.0 mi Calm Calm - N/A   Clear
11:52 PM 51.1 °F - 35.1 °F 54% 29.77 in 10.0 mi NW 10.4 mph - N/A   Clear